Ban Ao Muang, Thailand

11:41 PM +07 on August 17, 2017 (GMT +0700)
Krabi International School | | Change Station

Elev 92 ft 8.12 °N, 98.78 °E | Updated 13 minutes ago

Mostly Cloudy
Mostly Cloudy
80.5 °F
Feels Like 88 °F
N
0.0
Wind Variable Wind from NNW

Today
High -- | Low -- °F
--% Chance of Precip.
Yesterday
High -- | Low -- °F
Precip. -- in
Pressure 29.83 in
Visibility 4.3 miles
Clouds Few 2000 ft
Mostly Cloudy 10000 ft
Heat Index 88 °F
Dew Point 78 °F
Humidity 93%
Rainfall 0.21 in
Snow Depth Not available.
6:18 AM 6:40 PM
Waning Crescent, 21% visible
METAR VTSP 171630Z 25008KT 190V300 7000 FEW020 BKN100 28/23 Q1010 NOSIG
Pressure 29.83 in
Visibility 4.3 miles
Clouds Few 2000 ft
Mostly Cloudy 10000 ft
Heat Index 88 °F
Dew Point 78 °F
Humidity 93%
Rainfall 0.21 in
Snow Depth Not available.
6:18 AM 6:40 PM
Waning Crescent, 21% visible
METAR VTSP 171630Z 25008KT 190V300 7000 FEW020 BKN100 28/23 Q1010 NOSIG

Get Severe Weather Alerts

Thanks for signing up!

Be on the lookout for a verification email in your inbox.

You'll start receiving the daily forecast at 6 AM.

×

10-Day Weather Forecast

No radar image for this location.
×

Almanac

Astronomy

Aug. 17, 2017 Rise Set
Actual Time
Civil Twilight
Nautical Twilight
Astronomical Twilight
Moon
Length of Visible Light
Length of Day
Tomorrow will be .
, % of the Moon is Illuminated

Today's Extremes

Country Highs Country Lows

Community

WunderPhotos

Category 6

Welcome to Category 6. This is the collective home for Weather Underground's featured writeups by Dr. Jeff Masters (right), Bob Henson (left), Chris Burt, and other regular contributors.

Nearby

Air Quality

  Air Quality AQ Index Pollutant
Not available.

Snow Depth

Station Depth Elevation

Earthquake Activity

City Distance Mag. Time & Date
Minimum magnitude displayed is 2.5.

Coastal Water Temperatures

Place Temperature

Stations

Nearby Weather Stations

Station Location Temp. Windchill Dew Point Humidity Wind Precip. Elev Updated Type